[[{"header":{"parameterUnit":"m.s-1","parameterCategory":1,"la1":30.2991,"la2":30.254,"lo1":-89.0895,"lo2":-89.0444,"dy":0.0017,"dx":0.0017,"nx":28,"ny":28,"refTime":"2026-02-11T09:00:00:Z","depth":0,"parameterNumber":2,"parameterNumberName":"U-component_of_WINDS"},"data":[0,0,0,0,0,0,0,0,0,0,0,0,0,0,0,0,0,0,0,0,0,0,0,0,0,0,0,0,0,0,0,0,0,0,0,0,0,0,0,0,0,0,0,0,0,0,0,0,0,0,0,0,0,0,0,0,0,0,-1.2051,-1.2051,0,-1.2079,-1.208,-1.208,-1.2079,-1.2078,-1.2078,-1.2077,-1.2105,-1.2106,-1.2108,0,0,0,0,0,0,0,0,0,0,0,0,0,-1.1995,-1.1996,-1.2051,-1.2051,-1.2052,-1.2079,-1.208,-1.208,-1.2079,-1.2078,-1.2078,-1.2077,-1.2105,-1.2106,-1.2108,0,0,0,0,0,0,0,0,0,0,0,0,0,-1.2021,-1.1996,-1.2051,-1.2054,-1.2055,-1.2079,-1.208,-1.208,-1.2079,-1.2078,-1.2077,-1.2077,-1.2105,-1.2106,-1.2108,-1.213,0,0,-1.2113,-1.2114,0,0,0,0,0,0,0,0,-1.2019,-1.2023,-1.2053,-1.2054,-1.2055,-1.2075,-1.207,-1.2097,-1.2079,-1.207,-1.2077,-1.2077,-1.2096,-1.2098,-1.2105,-1.2132,-1.2133,-1.2113,-1.2114,-1.2115,-1.2115,0,0,0,0,0,0,0,-1.2017,-1.2021,-1.2062,-1.2054,-1.2055,-1.2054,-1.2057,-1.2075,-1.2086,-1.207,-1.207,-1.2074,-1.2096,-1.2103,-1.2105,-1.2133,-1.2113,-1.2115,-1.2116,-1.2116,-1.218,-1.2181,0,0,0,0,0,0,-1.2015,-1.202,-1.2061,-1.2063,-1.2035,-1.2056,-1.2059,-1.2069,-1.2085,-1.2087,-1.2074,-1.2074,-1.21,-1.2103,-1.2106,-1.2133,-1.2115,-1.2116,-1.2117,-1.2179,-1.218,-1.2181,0,0,0,0,0,0,-1.2014,-1.2019,-1.206,-1.2042,-1.2047,-1.2057,-1.2068,-1.207,-1.2077,-1.2088,-1.209,-1.208,-1.21,-1.2104,-1.2124,-1.2134,-1.2117,-1.2119,-1.2179,-1.218,-1.2181,-1.2188,0,0,0,0,0,0,-1.2012,-1.2018,-1.2027,-1.2042,-1.2048,-1.2078,-1.2069,-1.2071,-1.208,-1.2079,-1.2094,-1.2096,-1.21,-1.2122,-1.2126,-1.2136,-1.212,-1.2178,-1.2179,-1.218,-1.2187,-1.2189,-1.2191,0,0,0,0,0,-1.201,-1.2028,-1.2027,-1.2032,-1.2059,-1.2079,-1.2082,-1.2087,-1.2081,-1.209,-1.2097,-1.2095,-1.2133,-1.2124,-1.2129,-1.2139,-1.2177,-1.2179,-1.218,-1.2186,-1.2188,-1.2191,0,0,0,0,0,0,-1.2013,-1.203,-1.2029,-1.2052,-1.2064,-1.2078,-1.2089,-1.209,-1.2103,-1.2102,-1.2107,-1.211,-1.213,-1.2137,-1.2127,-1.2162,-1.2154,-1.2157,-1.2157,-1.2159,-1.2161,-1.2159,-1.2121,0,0,0,0,0,-1.2017,-1.2032,-1.2045,-1.2064,-1.207,-1.2079,-1.2087,-1.209,-1.2102,-1.2107,-1.2116,-1.2128,-1.2142,-1.2151,-1.2165,-1.2188,-1.2191,-1.2198,-1.22,-1.2202,-1.2203,-1.2215,-1.2218,-1.2186,-1.2186,-1.2186,0,0,-1.2024,-1.2035,-1.2044,-1.2065,-1.2074,-1.2089,-1.2083,-1.2099,-1.211,-1.211,-1.2129,-1.2136,-1.215,-1.2171,-1.2181,-1.2178,-1.2213,-1.2204,-1.2205,-1.2206,-1.2217,-1.222,-1.2223,-1.2187,-1.2187,-1.2187,0,0,-1.2044,-1.2054,-1.2071,-1.2081,-1.2095,-1.2101,-1.2105,-1.2119,-1.2124,-1.2144,-1.2144,-1.2157,-1.2182,-1.2191,-1.2199,-1.2224,-1.2223,-1.2229,-1.2239,-1.2251,-1.2253,-1.2255,-1.2263,-1.2266,-1.2231,-1.2231,-1.2231,0,-1.2051,-1.2073,-1.2079,-1.2095,-1.2105,-1.2106,-1.2122,-1.2131,-1.215,-1.2156,-1.2152,-1.2183,-1.2192,-1.2215,-1.2222,-1.2228,-1.2233,-1.2226,-1.2252,-1.2255,-1.2257,-1.2264,-1.2268,-1.2231,-1.2231,-1.2231,-1.2231,0,-1.2081,-1.2097,-1.2108,-1.2126,-1.2137,-1.2153,-1.2161,-1.2171,-1.2173,-1.218,-1.22,-1.2211,-1.2227,-1.2233,-1.2235,-1.2257,-1.2254,-1.2251,-1.2243,-1.226,-1.2268,-1.2271,-1.2232,-1.2232,-1.2231,-1.2231,0,0,-1.2103,-1.2124,-1.2128,-1.2136,-1.2153,-1.2165,-1.2181,-1.2197,-1.2205,-1.2218,-1.2232,-1.2253,-1.225,-1.226,-1.2263,-1.2273,-1.2291,-1.2269,-1.2269,-1.2272,-1.2315,-1.2317,-1.232,-1.2291,-1.2292,-1.2292,-1.2314,0,-1.2124,-1.2153,-1.2159,-1.2184,-1.2199,-1.22,-1.2215,-1.2226,-1.2233,-1.2246,-1.2253,-1.2267,-1.2263,-1.2269,-1.2279,-1.2287,-1.23,-1.2286,-1.2303,-1.2303,-1.2298,-1.2324,-1.2325,-1.2345,-1.2317,-1.2317,-1.2318,0,-1.2152,-1.2166,-1.2193,-1.2207,-1.2213,-1.2226,-1.2241,-1.2254,-1.2267,-1.2271,-1.2282,-1.2284,-1.2301,-1.2293,-1.2316,-1.2306,-1.2313,-1.2318,-1.2319,-1.232,-1.2311,-1.2324,-1.2352,-1.2354,-1.2322,-1.2322,-1.2322,0,-1.2164,-1.219,-1.2209,-1.2216,-1.2233,-1.2242,-1.225,-1.2263,-1.2272,-1.2285,-1.2291,-1.2306,-1.2314,-1.2326,-1.2332,-1.2326,-1.2354,-1.2347,-1.2357,-1.2357,-1.2362,-1.2361,-1.239,-1.2369,-1.2369,-1.2369,-1.2369,0,-1.2187,-1.2203,-1.2214,-1.2226,-1.2244,-1.2251,-1.2268,-1.2276,-1.2287,-1.23,-1.2303,-1.2315,-1.2323,-1.2336,-1.2341,-1.2359,-1.2363,-1.2366,-1.2367,-1.2365,-1.2364,-1.2369,-1.2367,-1.237,-1.2369,-1.2369,-1.2369,0,-1.2203,-1.2211,-1.2232,-1.2248,-1.2252,-1.2264,-1.2277,-1.2288,-1.2295,-1.2312,-1.2316,-1.2327,-1.2342,-1.235,-1.2369,-1.2372,-1.2392,-1.2393,-1.2388,-1.2388,-1.2397,-1.2396,-1.2429,-1.2433,-1.241,-1.2411,-1.2411,0,-1.2216,-1.2228,-1.2245,-1.2254,-1.2262,-1.2277,-1.2286,-1.2294,-1.2303,-1.2319,-1.2329,-1.2345,-1.2357,-1.2382,-1.2391,-1.2406,-1.2406,-1.2417,-1.2408,-1.2406,-1.2405,-1.2404,-1.2405,-1.2418,-1.2418,-1.2418,-1.2418,0,-1.2238,-1.2242,-1.2256,-1.2271,-1.2283,-1.2295,-1.2307,-1.2315,-1.2324,-1.2335,-1.2351,-1.2361,-1.2381,-1.2396,-1.2412,-1.2419,-1.242,-1.2421,-1.2424,-1.2422,-1.2418,-1.2419,-1.2391,-1.242,-1.242,-1.242,-1.242,-1.242,-1.2252,-1.2263,-1.2277,-1.2292,-1.2302,-1.2314,-1.2325,-1.2334,-1.2347,-1.2364,-1.2368,-1.2385,-1.2398,-1.2418,-1.2427,-1.244,-1.2437,-1.2442,-1.2443,-1.2444,-1.2444,-1.2417,-1.2443,-1.2443,-1.2443,-1.2443,-1.2443,0,-1.2274,-1.2283,-1.2297,-1.2314,-1.2326,-1.2327,-1.234,-1.235,-1.2365,-1.2377,-1.239,-1.2409,-1.2424,-1.2434,-1.245,-1.2458,-1.2459,-1.2462,-1.2461,-1.2462,-1.2445,-1.2441,-1.2461,-1.2461,-1.2461,-1.2461,-1.2461,-1.2461,-1.2286,-1.2304,-1.231,-1.2333,-1.2342,-1.2359,-1.2367,-1.2377,-1.2387,-1.2407,-1.242,-1.2427,-1.2439,-1.2455,-1.2469,-1.2471,-1.2476,-1.2479,-1.2482,-1.2465,-1.2463,-1.2462,-1.2457,-1.248,-1.248,-1.2497,-1.2497,-1.2498]},{"header":{"parameterUnit":"m.s-1","parameterCategory":1,"la1":30.2991,"la2":30.254,"lo1":-89.0895,"lo2":-89.0444,"dy":0.0017,"dx":0.0017,"nx":28,"ny":28,"refTime":"2026-02-11T09:00:00:Z","depth":0,"parameterNumber":3,"parameterNumberName":"V-component_of_WINDS"},"data":[0,0,0,0,0,0,0,0,0,0,0,0,0,0,0,0,0,0,0,0,0,0,0,0,0,0,0,0,0,0,0,0,0,0,0,0,0,0,0,0,0,0,0,0,0,0,0,0,0,0,0,0,0,0,0,0,0,0,2.4628,2.4628,0,2.4604,2.4604,2.4604,2.4564,2.4563,2.4562,2.4561,2.4536,2.4536,2.4536,0,0,0,0,0,0,0,0,0,0,0,0,0,2.4638,2.4638,2.4628,2.4628,2.4627,2.4604,2.4604,2.4604,2.4564,2.4563,2.4562,2.4561,2.4536,2.4536,2.4536,0,0,0,0,0,0,0,0,0,0,0,0,0,2.4626,2.4638,2.4628,2.4605,2.4602,2.4604,2.4604,2.4603,2.4564,2.4563,2.4562,2.4561,2.4536,2.4536,2.4536,2.4558,0,0,2.4536,2.4536,0,0,0,0,0,0,0,0,2.4627,2.4626,2.4608,2.4606,2.4604,2.4586,2.4598,2.4588,2.4564,2.4579,2.4561,2.456,2.4553,2.4552,2.455,2.4557,2.4555,2.4536,2.4536,2.4536,2.4536,0,0,0,0,0,0,0,2.4628,2.4627,2.4618,2.4608,2.4605,2.4595,2.4592,2.4596,2.4572,2.4577,2.4574,2.4572,2.4552,2.455,2.4549,2.4555,2.4536,2.4536,2.4536,2.4536,2.4581,2.4582,0,0,0,0,0,0,2.4632,2.4628,2.4619,2.4618,2.4613,2.4596,2.4593,2.4593,2.4572,2.4568,2.4573,2.457,2.455,2.4549,2.4548,2.4573,2.4536,2.4536,2.4536,2.458,2.4581,2.4582,0,0,0,0,0,0,2.4633,2.4632,2.462,2.4622,2.462,2.4597,2.4597,2.4593,2.4591,2.4569,2.4564,2.4575,2.4549,2.4548,2.4556,2.4572,2.4536,2.4536,2.4578,2.458,2.4582,2.4625,0,0,0,0,0,0,2.4633,2.4632,2.464,2.4622,2.462,2.4629,2.4598,2.4593,2.4591,2.4587,2.457,2.4566,2.4548,2.4556,2.4556,2.4571,2.4536,2.4577,2.4579,2.4581,2.4622,2.4628,2.4633,0,0,0,0,0,2.4634,2.4653,2.4641,2.464,2.463,2.463,2.4629,2.4608,2.4592,2.4601,2.4587,2.4567,2.457,2.4558,2.4557,2.4572,2.4576,2.4578,2.4581,2.4619,2.4627,2.4633,0,0,0,0,0,0,2.4672,2.465,2.4637,2.4651,2.4643,2.4624,2.4633,2.4616,2.4612,2.4609,2.4583,2.458,2.4592,2.4583,2.4569,2.4594,2.457,2.4573,2.4599,2.4606,2.4611,2.4613,2.4536,0,0,0,0,0,2.4683,2.4685,2.4665,2.468,2.4677,2.4656,2.4655,2.464,2.4631,2.4627,2.4614,2.4605,2.4605,2.4605,2.4602,2.462,2.4616,2.4631,2.4636,2.4641,2.4644,2.4654,2.466,2.4591,2.4591,2.4591,0,0,2.4704,2.4692,2.4695,2.4687,2.4679,2.4683,2.4653,2.4658,2.466,2.4628,2.4635,2.4626,2.4614,2.4628,2.4633,2.4621,2.4662,2.4644,2.4648,2.4648,2.4657,2.4664,2.467,2.4593,2.4593,2.4592,0,0,2.4744,2.4735,2.4747,2.474,2.4729,2.4715,2.4718,2.4702,2.4694,2.4702,2.4678,2.468,2.4679,2.4673,2.4669,2.4709,2.4691,2.4709,2.4738,2.4748,2.4754,2.4758,2.4774,2.4779,2.4712,2.4712,2.4712,0,2.4772,2.4776,2.4755,2.4762,2.4759,2.4731,2.4743,2.4737,2.4726,2.4725,2.4711,2.471,2.47,2.4713,2.4723,2.4721,2.4724,2.4711,2.4755,2.4759,2.4763,2.4778,2.4783,2.4714,2.4714,2.4714,2.4713,0,2.4811,2.4815,2.4826,2.4817,2.4816,2.4825,2.4805,2.4806,2.4792,2.478,2.4788,2.4776,2.4772,2.4773,2.4758,2.4784,2.4777,2.4759,2.4735,2.4773,2.4786,2.4791,2.4717,2.4717,2.4716,2.4715,0,0,2.4875,2.4855,2.486,2.4856,2.4842,2.4845,2.4853,2.4849,2.4852,2.4845,2.4852,2.4852,2.4837,2.4833,2.4817,2.4826,2.486,2.4807,2.4807,2.4819,2.4889,2.4903,2.491,2.4848,2.4849,2.4849,2.489,0,2.4914,2.4927,2.4909,2.4926,2.493,2.4904,2.4911,2.4904,2.4893,2.4894,2.4882,2.4884,2.4862,2.486,2.4867,2.4854,2.4874,2.4851,2.4854,2.4855,2.4859,2.4916,2.4931,2.497,2.4895,2.4896,2.4897,0,2.496,2.4957,2.4976,2.4962,2.4963,2.497,2.4966,2.4968,2.4959,2.4951,2.4948,2.4929,2.4937,2.4913,2.4924,2.4909,2.4909,2.4903,2.4904,2.4904,2.4879,2.4919,2.4982,2.4989,2.4904,2.4904,2.4903,0,2.5006,2.5007,2.5018,2.5016,2.5,2.5006,2.4999,2.499,2.4989,2.4986,2.4986,2.4983,2.4982,2.498,2.4962,2.4946,2.4975,2.495,2.4969,2.497,2.4976,2.4976,2.5042,2.4975,2.4975,2.4975,2.4975,0,2.5052,2.5064,2.5039,2.5046,2.506,2.5039,2.5053,2.5043,2.5035,2.5041,2.5017,2.5022,2.4998,2.5001,2.4986,2.4998,2.4997,2.4991,2.4987,2.4994,2.4995,2.4994,2.4991,2.4977,2.4976,2.4976,2.4976,0,2.5106,2.5089,2.51,2.5085,2.5082,2.5093,2.508,2.5086,2.5074,2.5081,2.5081,2.5062,2.5064,2.5046,2.5045,2.5035,2.5054,2.5045,2.5057,2.5055,2.5076,2.5074,2.5143,2.5152,2.5079,2.508,2.5081,0,2.5136,2.5146,2.5132,2.5134,2.5129,2.5133,2.5133,2.5112,2.5113,2.5105,2.5112,2.5113,2.5112,2.5117,2.5103,2.5102,2.5094,2.5118,2.5093,2.51,2.5096,2.5096,2.5097,2.5123,2.5124,2.5125,2.5125,0,2.5193,2.5184,2.5185,2.5184,2.5185,2.5183,2.5179,2.5182,2.516,2.5162,2.5165,2.5164,2.5164,2.5165,2.5161,2.5155,2.5137,2.5133,2.5138,2.5145,2.5152,2.515,2.5072,2.5132,2.5131,2.5131,2.513,2.513,2.5237,2.5244,2.5236,2.5239,2.5234,2.5231,2.5237,2.5226,2.5228,2.5226,2.5214,2.5219,2.5211,2.5205,2.52,2.5204,2.5193,2.5199,2.5201,2.5203,2.5207,2.5151,2.5203,2.5203,2.5203,2.5203,2.5203,0,2.5293,2.5287,2.5289,2.5285,2.5287,2.5271,2.5266,2.5269,2.5274,2.5268,2.5269,2.5272,2.5274,2.5261,2.526,2.5266,2.5258,2.5267,2.5267,2.5266,2.5217,2.5214,2.5274,2.5274,2.5274,2.5274,2.5274,2.5273,2.5322,2.5335,2.5326,2.5337,2.533,2.5336,2.5334,2.5332,2.5328,2.5333,2.5335,2.5326,2.5318,2.5317,2.5318,2.5314,2.5315,2.5327,2.5321,2.5276,2.5269,2.5262,2.5259,2.5328,2.5328,2.5369,2.537,2.537]}]]